This is the latest recevied weather packets stored in our database for station/object WK7G. If no packets are shown the sender has not sent any weather packets the latest 10 day(s).
| Time | Temp. | Humidity | Pressure | Rain* | Wind** | Luminosity | Snow |
|---|---|---|---|---|---|---|---|
| 1777796792 | 6.11° C | 53% | 1010.7 hPa | 0 mm | - | 0 W/m² | - |
| 1777796490 | 5.56° C | 54% | 1011 hPa | 0 mm | - | 0 W/m² | - |
| 1777796184 | 6.11° C | 54% | 1011 hPa | 0 mm | - | 0 W/m² | - |
| 1777795881 | 7.22° C | 51% | 1011 hPa | 0 mm | - | 0 W/m² | - |
| 1777795577 | 7.22° C | 50% | 1011.2 hPa | 0 mm | - | 0 W/m² | - |
| 1777795274 | 7.22° C | 50% | 1011.2 hPa | 0 mm | - | 0 W/m² | - |
| 1777794971 | 6.67° C | 51% | 1011 hPa | 0 mm | - | 0 W/m² | - |
| 1777794667 | 7.22° C | 50% | 1011.3 hPa | 0 mm | - | 0 W/m² | - |
| 1777794363 | 6.67° C | 52% | 1011.3 hPa | 0 mm | - | 0 W/m² | - |
| 1777794058 | 6.67° C | 52% | 1011.1 hPa | 0 mm | - | 0 W/m² | - |
| 1777793755 | 6.67° C | 50% | 1011 hPa | 0 mm | - | 0 W/m² | - |
| 1777793454 | 6.67° C | 52% | 1011.1 hPa | 0 mm | - | 0 W/m² | - |
| 1777793151 | 6.67° C | 51% | 1011 hPa | 0 mm | - | 0 W/m² | - |
| 1777792848 | 7.22° C | 50% | 1011 hPa | 0 mm | - | 0 W/m² | - |
| 1777792544 | 6.67° C | 52% | 1011 hPa | 0 mm | - | 0 W/m² | - |
| 1777792242 | 6.67° C | 54% | 1011.2 hPa | 0 mm | - | 0 W/m² | - |
| 1777791938 | 3.89° C | 57% | 1011.1 hPa | 0 mm | - | 0 W/m² | - |
| 1777791637 | 5° C | 60% | 1011.3 hPa | 0 mm | - | 0 W/m² | - |
| 1777791333 | 5.56° C | 54% | 1011.2 hPa | 0 mm | - | 0 W/m² | - |
| 1777791031 | 6.67° C | 53% | 1011.2 hPa | 0 mm | - | 0 W/m² | - |
| 1777790728 | 6.67° C | 52% | 1011.3 hPa | 0 mm | - | 0 W/m² | - |
| 1777790425 | 6.11° C | 52% | 1011.3 hPa | 0 mm | - | 0 W/m² | - |
| 1777790122 | 6.11° C | 52% | 1011.2 hPa | 0 mm | - | 0 W/m² | - |
| 1777789821 | 6.67° C | 52% | 1011.2 hPa | 0 mm | - | 0 W/m² | - |
| 1777789519 | 6.67° C | 52% | 1011.2 hPa | 0 mm | - | 0 W/m² | - |
* Rain latest hour (hover to see other rain measurements)
** Current wind speed in m/s (hover to see current wind gust speed)